Augusta, GA

4:03 PM EST on January 18, 2017 (GMT -0500)
Daniel

Weather History for KDNL - May, 2014

Change the Weather History Date:

Saturday, May 17, 2014

  Actual Average Record
Temperature  
Mean Temperature 65 °F -  
Max Temperature 77 °F 81 °F 90 °F (1998)
Min Temperature 52 °F 61 °F 52 °F (2014)
Growing Degree Days 14 (Base 50)    
Moisture  
Dew Point 41 °F    
Average Humidity 44    
Maximum Humidity 72    
Minimum Humidity 27    
Precipitation  
Precipitation 0.00 in - - ()
Month to date precipitation 3.40  
Year to date precipitation 16.61  
Sea Level Pressure  
Sea Level Pressure 30.17 in    
Wind  
Wind Speed 5 mph (NW)    
Max Wind Speed 14 mph    
Max Gust Speed 19 mph    
Visibility 10 miles    
Events      
Averages and records for this station are not official NWS values.
T = Trace of Precipitation, MM = Missing Value Source: NWS Daily Summary

Daily Weather History Graph

Daily Weather History Graph

Search for Another Location

Airport or City:

Trip Planner

Search our weather history database for the weather conditions in past years. The results will help you decide how hot, cold, wet, or windy it might be!

Date:

Astronomy

May. 17, 2014 Rise Set
Actual Time 6:26 AM EDT 8:23 PM EDT
Civil Twilight 5:58 AM EDT 8:50 PM EDT
Nautical Twilight 5:25 AM EDT 9:24 PM EDT
Astronomical Twilight 4:49 AM EDT 9:59 PM EDT
Moon 11:23 PM EDT (5/17) 9:07 AM EDT (5/17)
Length of Visible Light 14h 51m
Length of Day
13h 56m
Waning Gibbous, 89% of the Moon is Illuminated
May 17
Waning Gibbous
May 21
Last Quarter
May 28
New
Jun 5
First Quarter
Jun 13
Full

Hourly Weather History & Observations

Time (EDT) Temp. Dew Point Humidity Pressure Visibility Wind Dir Wind Speed Gust Speed Precip Events Conditions
12:53 AM 60.1 °F 37.9 °F 44% 30.14 in 10.0 mi WNW 5.8 mph - N/A   Clear
1:53 AM 57.9 °F 37.9 °F 47% 30.14 in 10.0 mi WNW 4.6 mph - N/A   Clear
2:53 AM 57.0 °F 37.9 °F 49% 30.14 in 10.0 mi NW 5.8 mph - N/A   Clear
3:53 AM 57.0 °F 37.9 °F 49% 30.14 in 10.0 mi NW 5.8 mph - N/A   Clear
4:53 AM 53.1 °F 39.9 °F 61% 30.17 in 10.0 mi Calm Calm - N/A   Clear
5:53 AM 53.1 °F 41.0 °F 64% 30.18 in 10.0 mi Calm Calm - N/A   Clear
6:53 AM 54.0 °F 39.0 °F 57% 30.20 in 10.0 mi WNW 3.5 mph - N/A   Clear
7:53 AM 57.0 °F 41.0 °F 55% 30.20 in 10.0 mi Calm Calm - N/A   Clear
8:53 AM 61.0 °F 43.0 °F 52% 30.21 in 10.0 mi Calm Calm - N/A   Clear
9:53 AM 64.9 °F 36.0 °F 34% 30.21 in 10.0 mi SW 3.5 mph - N/A   Clear
10:53 AM 69.1 °F 37.9 °F 32% 30.21 in 10.0 mi North - - N/A   Clear
11:53 AM 72.0 °F 37.0 °F 28% 30.20 in 10.0 mi WNW 8.1 mph - N/A   Clear
12:53 PM 73.0 °F 37.9 °F 28% 30.19 in 10.0 mi Variable 4.6 mph - N/A   Clear
1:53 PM 73.9 °F 39.9 °F 29% 30.19 in 10.0 mi Variable 5.8 mph - N/A   Clear
2:53 PM 75.9 °F 39.9 °F 27% 30.17 in 10.0 mi WNW 13.8 mph 18.4 mph N/A   Partly Cloudy
4:53 PM 75.9 °F 39.9 °F 27% 30.14 in 10.0 mi WNW 8.1 mph - N/A   Partly Cloudy
5:53 PM 75.0 °F 41.0 °F 29% 30.13 in 10.0 mi Variable 5.8 mph - N/A   Scattered Clouds
6:53 PM 73.9 °F 44.1 °F 34% 30.14 in 10.0 mi WNW 4.6 mph - N/A   Clear
7:53 PM 72.0 °F 45.0 °F 38% 30.14 in 10.0 mi North 5.8 mph - N/A   Clear
8:53 PM 69.1 °F 46.9 °F 45% 30.15 in 10.0 mi NNW 3.5 mph - N/A   Clear
9:53 PM 64.9 °F 50.0 °F 58% 30.17 in 10.0 mi North 6.9 mph - N/A   Clear
10:53 PM 63.0 °F 51.1 °F 65% 30.17 in 10.0 mi North 5.8 mph - N/A   Clear
11:53 PM 61.0 °F 51.1 °F 70% 30.19 in 10.0 mi North 8.1 mph - N/A   Clear